Location: Unspecified
(0.0000°N, 0.0000°E)
Time: 07:55:22
(UTC+00:00)

ISS - Pass Details

Date: 19 January 2017
Orbit: 399 x 410 km, 51.6° (Epoch: 22 January)

Event Time Altitude Azimuth Distance (km) Brightness Sun altitude
Rises 19:35:41 0° 208° (SSW) 2,324 1.3 -19.8°
Reaches altitude 10° 19:37:48 10° 203° (SSW) 1,460 0.1 -20.3°
Enters shadow 19:40:16 41° 172° (S) 596 -2.5 -20.9°
